Akron, OH

12:31 PM EST on February 08, 2016 (GMT -0500)
Akron Fulton International

Weather History for KAKR - March, 2013

Change the Weather History Date:

Saturday, March 9, 2013

  Actual Average (KCAK) Record (KCAK)
Temperature  
Mean Temperature 36 °F 35 °F  
Max Temperature 54 °F 44 °F 71 °F (2000)
Min Temperature 19 °F 26 °F 0 °F (1984)
Degree Days  
Heating Degree Days 28 30  
Month to date heating degree days 282  
Since 1 July heating degree days 4826  
Cooling Degree Days 0 0  
Month to date cooling degree days 0  
Year to date cooling degree days 0  
Moisture  
Dew Point 25 °F    
Average Humidity 64    
Maximum Humidity 93    
Minimum Humidity 38    
Precipitation  
Precipitation 0.00 in 0.09 in - ()
Month to date precipitation 0.78  
Year to date precipitation 5.70  
Snow  
Snow 0.00 in 0.30 in - ()
Month to date snowfall 3.0  
Since 1 July snowfall 39.5  
Snow Depth -    
Sea Level Pressure  
Sea Level Pressure 30.29 in    
Wind  
Wind Speed 2 mph (SSE)    
Max Wind Speed 7 mph    
Max Gust Speed -    
Visibility 8 miles    
Events      
T = Trace of Precipitation, MM = Missing Value Source: NWS Daily Summary

Daily Weather History Graph

Daily Weather History Graph

Search for Another Location

Airport or City:

Trip Planner

Search our weather history database for the weather conditions in past years. The results will help you decide how hot, cold, wet, or windy it might be!

Date:

Astronomy

Mar. 09, 2013 Rise Set
Actual Time 6:47 AM EST 6:26 PM EST
Civil Twilight 6:19 AM EST 6:53 PM EST
Nautical Twilight 5:47 AM EST 7:25 PM EST
Astronomical Twilight 5:15 AM EST 7:57 PM EST
Moon 5:11 AM EST (3/9) 4:26 PM EST (3/9)
Length of Visible Light 12h 34m
Length of Day
11h 39m
Waning Crescent, 5% of the Moon is Illuminated
Mar 9
Waning Crescent
Mar 11
New
Mar 19
First Quarter
Mar 27
Full
Apr 3
Last Quarter

Hourly Weather History & Observations

Time (EST) Temp. Windchill Dew Point Humidity Pressure Visibility Wind Dir Wind Speed Gust Speed Precip Events Conditions
12:54 AM 24.1 °F - 21.0 °F 88% 30.43 in 7.0 mi Calm Calm - N/A   Clear
1:54 AM 23.0 °F - 21.0 °F 92% 30.41 in 5.0 mi Calm Calm - N/A   Clear
2:54 AM 23.0 °F - 19.0 °F 85% 30.40 in 6.0 mi Calm Calm - N/A   Clear
3:54 AM 21.2 °F - 19.4 °F 93% 30.35 in 5.0 mi Calm Calm - N/A   Clear
4:54 AM 21.9 °F - 19.9 °F 92% 30.39 in 6.0 mi Calm Calm - N/A   Clear
5:54 AM 21.9 °F - 19.0 °F 89% 30.40 in 6.0 mi Calm Calm - N/A   Clear
6:54 AM 19.9 °F - 17.1 °F 89% 30.40 in 5.0 mi Calm Calm - N/A   Clear
7:54 AM 25.0 °F - 23.0 °F 92% 30.40 in 4.0 mi Calm Calm - N/A   Clear
8:54 AM 33.1 °F - 28.0 °F 82% 30.39 in 9.0 mi Calm Calm - N/A   Clear
9:54 AM 36.0 °F 30.3 °F 27.0 °F 70% 30.38 in 10.0 mi ESE 6.9 mph - N/A   Clear
10:54 AM 39.9 °F 36.7 °F 28.0 °F 63% 30.36 in 10.0 mi Variable 4.6 mph - N/A   Clear
11:54 AM 42.1 °F 39.2 °F 28.0 °F 58% 30.35 in 10.0 mi ESE 4.6 mph - N/A   Clear
12:54 PM 46.0 °F 42.5 °F 28.9 °F 51% 30.32 in 10.0 mi SE 6.9 mph - N/A   Clear
1:54 PM 48.9 °F - 30.0 °F 48% 30.28 in 10.0 mi Variable 4.6 mph - N/A   Clear
2:54 PM 51.1 °F - 30.0 °F 44% 30.25 in 10.0 mi South 6.9 mph - N/A   Clear
3:54 PM 52.0 °F - 28.9 °F 41% 30.23 in 10.0 mi South 6.9 mph - N/A   Clear
4:54 PM 54.0 °F - 28.9 °F 38% 30.20 in 10.0 mi Variable 4.6 mph - N/A   Clear
5:54 PM 53.1 °F - 28.0 °F 38% 30.18 in 9.0 mi SE 4.6 mph - N/A   Clear
6:54 PM 48.0 °F - 28.9 °F 48% 30.19 in 10.0 mi Calm Calm - N/A   Clear
7:54 PM 46.9 °F - 27.0 °F 46% 30.17 in 10.0 mi Calm Calm - N/A   Clear
8:54 PM 46.9 °F - 27.0 °F 46% 30.16 in 10.0 mi Calm Calm - N/A   Clear
9:54 PM 46.9 °F - 27.0 °F 46% 30.16 in 10.0 mi Variable 3.5 mph - N/A   Clear
10:54 PM 46.9 °F - 27.0 °F 46% 30.15 in 10.0 mi South 3.5 mph - N/A   Mostly Cloudy
11:54 PM 46.9 °F - 27.0 °F 46% 30.13 in 10.0 mi South 4.6 mph - N/A   Overcast